,,Stat6,,Stat2,,Stat8,,Stat9,,Stat10,,Wind1,,Wind1,
time,status,PA1M_AVG,status,PR1M_SUM,status,RH1M_AVG,status,SR1M_AVG,status,TA1M_AVG,status,W1dAve1m,status,W1sAve1m,
2005-06-07, 00:00:01,VALID,917.386,VALID,0,VALID,99.0186,VALID,-0.0679233,VALID,22.1355,VALID,106,VALID,0.359756,
2005-06-07, 00:01:00,VALID,917.384,VALID,0,VALID,98.9664,VALID,-0.0509425,VALID,22.0973,VALID,106,VALID,0.467507,
2005-06-07, 00:02:00,VALID,917.375,VALID,0,VALID,99.0059,VALID,0,VALID,22.0448,VALID,106,VALID,0.574491,
2005-06-07, 00:03:00,VALID,917.379,VALID,0,VALID,99.1559,VALID,-0.0339617,VALID,21.9834,VALID,106,VALID,0.432351,
2005-06-07, 00:04:00,VALID,917.358,VALID,0,VALID,99.3441,VALID,0,VALID,21.9552,VALID,103,VALID,0.596037,
2005-06-07, 00:05:00,VALID,917.335,VALID,0,VALID,99.5183,VALID,-0.0679233,VALID,21.9032,VALID,101,VALID,0.206076,
2005-06-07, 00:06:00,VALID,917.331,VALID,0,VALID,99.6747,VALID,-0.0679233,VALID,21.8809,VALID,108,VALID,0.278232,
2005-06-07, 00:07:00,VALID,917.317,VALID,0,VALID,99.7714,VALID,-0.0509425,VALID,21.8489,VALID,116,VALID,0.481326,
2005-06-07, 00:08:01,VALID,917.317,VALID,0,VALID,99.7917,VALID,0.0339617,VALID,21.7985,VALID,106,VALID,0.588796,
2005-06-07, 00:09:01,VALID,917.311,VALID,0,VALID,99.924,VALID,0.0509425,VALID,21.753,VALID,100,VALID,0.416969,
2005-06-07, 00:10:00,VALID,917.319,VALID,0,VALID,100,VALID,0.0339617,VALID,21.7336,VALID,89,VALID,0.545603,
2005-06-07, 00:11:00,VALID,917.318,VALID,0,VALID,100,VALID,0.0679233,VALID,21.6986,VALID,84,VALID,0.463655,
2005-06-07, 00:12:01,VALID,917.317,VALID,0,VALID,100,VALID,0.0169808,VALID,21.6725,VALID,84,VALID,0.271205,
2005-06-07, 00:13:00,VALID,917.324,VALID,0,VALID,100,VALID,0.0679233,VALID,21.6687,VALID,84,VALID,0.418359,
2005-06-07, 00:14:00,VALID,917.318,VALID,0,VALID,100,VALID,0.0509425,VALID,21.6563,VALID,81,VALID,0.5518,
2005-06-07, 00:15:00,VALID,917.31,VALID,0,VALID,100,VALID,0.0509425,VALID,21.6469,VALID,79,VALID,0.57758,
2005-06-07, 00:16:01,VALID,917.283,VALID,0,VALID,100,VALID,0.0339617,VALID,21.6173,VALID,79,VALID,0.236852,
2005-06-07, 00:17:00,VALID,917.268,VALID,0,VALID,100,VALID,0.0849042,VALID,21.6273,VALID,79,VALID,0.0674055,
2005-06-07, 00:18:00,VALID,917.248,VALID,0,VALID,100,VALID,0.0509425,VALID,21.6214,VALID,79,VALID,0.000355114,
2005-06-07, 00:19:01,VALID,917.223,VALID,0,VALID,100,VALID,0.0509425,VALID,21.5977,VALID,79,VALID,0.000744048,
2005-06-07, 00:20:00,VALID,917.202,VALID,0,VALID,100,VALID,0.0509425,VALID,21.5888,VALID,79,VALID,0,
2005-06-07, 00:21:00,VALID,917.184,VALID,0,VALID,100,VALID,0.0679233,VALID,21.5689,VALID,79,VALID,0.0115412,
2005-06-07, 00:22:01,VALID,917.163,VALID,0,VALID,100,VALID,0,VALID,21.5697,VALID,79,VALID,0,
2005-06-07, 00:23:01,VALID,917.137,VALID,0,VALID,100,VALID,-0.0679233,VALID,21.5678,VALID,79,VALID,0,
2005-06-07, 00:24:00,VALID,917.141,VALID,0,VALID,100,VALID,-0.0509425,VALID,21.581,VALID,79,VALID,0,
2005-06-07, 00:25:01,VALID,917.133,VALID,0,VALID,100,VALID,-0.0339617,VALID,21.5578,VALID,79,VALID,0,
2005-06-07, 00:26:01,VALID,917.098,VALID,0,VALID,100,VALID,-0.0679233,VALID,21.5678,VALID,79,VALID,0,
2005-06-07, 00:27:00,VALID,917.06,VALID,0,VALID,100,VALID,0,VALID,21.581,VALID,79,VALID,0,
2005-06-07, 00:28:01,VALID,917.026,VALID,0,VALID,100,VALID,-0.0509425,VALID,21.5745,VALID,79,VALID,0,
2005-06-07, 00:29:01,VALID,916.993,VALID,0,VALID,100,VALID,-0.0339617,VALID,21.5576,VALID,79,VALID,0,
2005-06-07, 00:30:00,VALID,916.978,VALID,0,VALID,100,VALID,-0.0169808,VALID,21.5875,VALID,79,VALID,0,
2005-06-07, 00:31:01,VALID,916.93,VALID,0,VALID,100,VALID,-0.0509425,VALID,21.5901,VALID,79,VALID,0,
2005-06-07, 00:32:00,VALID,916.914,VALID,0,VALID,100,VALID,-0.0509425,VALID,21.6004,VALID,79,VALID,0,
2005-06-07, 00:33:01,VALID,916.89,VALID,0,VALID,100,VALID,-0.0169808,VALID,21.6004,VALID,79,VALID,0.0950521,
2005-06-07, 00:34:00,VALID,916.86,VALID,0,VALID,100,VALID,-0.0339617,VALID,21.6133,VALID,79,VALID,0.24673,
2005-06-07, 00:35:00,VALID,916.817,VALID,0,VALID,100,VALID,-0.0509425,VALID,21.6001,VALID,79,VALID,0.206214,
2005-06-07, 00:36:00,VALID,916.792,VALID,0,VALID,100,VALID,-0.101885,VALID,21.6292,VALID,81,VALID,0.434956,
2005-06-07, 00:37:00,VALID,916.781,VALID,0,VALID,100,VALID,-0.0849042,VALID,21.6453,VALID,83,VALID,0.197731,
2005-06-07, 00:38:00,VALID,916.751,VALID,0,VALID,100,VALID,-0.0509425,VALID,21.6717,VALID,83,VALID,0.00443892,
2005-06-07, 00:39:00,VALID,916.742,VALID,0,VALID,100,VALID,-0.0169808,VALID,21.6809,VALID,83,VALID,0,
2005-06-07, 00:40:01,VALID,916.729,VALID,0,VALID,100,VALID,-0.0339617,VALID,21.6973,VALID,83,VALID,0.0450149,
2005-06-07, 00:41:01,VALID,916.72,VALID,0,VALID,100,VALID,0,VALID,21.6836,VALID,83,VALID,0.151786,
2005-06-07, 00:42:00,VALID,916.716,VALID,0,VALID,100,VALID,-0.0339617,VALID,21.6973,VALID,61,VALID,0.466602,
2005-06-07, 00:43:00,VALID,916.712,VALID,0,VALID,100,VALID,-0.0169808,VALID,21.6515,VALID,61,VALID,0.739281,
2005-06-07, 00:44:00,VALID,916.712,VALID,0,VALID,100,VALID,-0.0509425,VALID,21.6068,VALID,61,VALID,0.540039,
2005-06-07, 00:45:00,VALID,916.707,VALID,0,VALID,100,VALID,-0.0169808,VALID,21.571,VALID,61,VALID,0.540879,
2005-06-07, 00:46:00,VALID,916.712,VALID,0,VALID,99.9967,VALID,-0.0169808,VALID,21.5417,VALID,61,VALID,0.497456,
2005-06-07, 00:47:00,VALID,916.72,VALID,0,VALID,100,VALID,0,VALID,21.5382,VALID,61,VALID,0.719658,
2005-06-07, 00:48:01,VALID,916.725,VALID,0,VALID,100,VALID,-0.0339617,VALID,21.5223,VALID,61,VALID,0.842842,
2005-06-07, 00:49:01,VALID,916.72,VALID,0,VALID,100,VALID,0,VALID,21.5161,VALID,61,VALID,0.875381,
2005-06-07, 00:50:00,VALID,916.71,VALID,0,VALID,100,VALID,0,VALID,21.5161,VALID,61,VALID,0.649287,
2005-06-07, 00:51:00,VALID,916.694,VALID,0,VALID,100,VALID,-0.0169808,VALID,21.5,VALID,61,VALID,0.271391,
2005-06-07, 00:52:00,VALID,916.669,VALID,0,VALID,100,VALID,-0.0679233,VALID,21.5035,VALID,61,VALID,0.0739462,
2005-06-07, 00:53:01,VALID,916.649,VALID,0,VALID,100,VALID,-0.0339617,VALID,21.5126,VALID,61,VALID,0.211806,
2005-06-07, 00:54:00,VALID,916.663,VALID,0,VALID,100,VALID,-0.0509425,VALID,21.5296,VALID,61,VALID,0.135298,
2005-06-07, 00:55:01,VALID,916.673,VALID,0,VALID,100,VALID,-0.0679233,VALID,21.5234,VALID,68,VALID,0.623285,
2005-06-07, 00:56:01,VALID,916.673,VALID,0,VALID,100,VALID,-0.0339617,VALID,21.5099,VALID,86,VALID,0.728468,
2005-06-07, 00:57:00,VALID,916.674,VALID,0,VALID,100,VALID,-0.0339617,VALID,21.4844,VALID,91,VALID,0.679297,
2005-06-07, 00:58:00,VALID,916.69,VALID,0,VALID,100,VALID,-0.0679233,VALID,21.4577,VALID,97,VALID,0.719993,
2005-06-07, 00:59:01,VALID,916.695,VALID,0,VALID,100,VALID,-0.0339617,VALID,21.4351,VALID,101,VALID,0.576265,
2005-06-07, 01:00:00,VALID,916.699,VALID,0,VALID,100,VALID,-0.0339617,VALID,21.4321,VALID,107,VALID,0.254192,
2005-06-07, 01:01:00,VALID,916.704,VALID,0,VALID,100,VALID,0,VALID,21.4354,VALID,131,VALID,0.962426,
2005-06-07, 01:02:00,VALID,916.689,VALID,0,VALID,100,VALID,-0.0679233,VALID,21.4327,VALID,133,VALID,0.885742,
2005-06-07, 01:03:00,VALID,916.678,VALID,0,VALID,100,VALID,-0.0169808,VALID,21.4222,VALID,138,VALID,0.675409,
2005-06-07, 01:04:01,VALID,916.68,VALID,0,VALID,100,VALID,-0.0169808,VALID,21.4224,VALID,124,VALID,0.585193,
2005-06-07, 01:05:00,VALID,916.672,VALID,0,VALID,100,VALID,-0.0169808,VALID,21.4095,VALID,136,VALID,0.74564,
2005-06-07, 01:06:00,VALID,916.66,VALID,0,VALID,100,VALID,-0.0509425,VALID,21.4063,VALID,137,VALID,0.511719,
2005-06-07, 01:07:00,VALID,916.646,VALID,0,VALID,100,VALID,0,VALID,21.3996,VALID,148,VALID,0.627096,
2005-06-07, 01:08:00,VALID,916.624,VALID,0,VALID,100,VALID,-0.0169808,VALID,21.3993,VALID,153,VALID,0.467722,
2005-06-07, 01:09:01,VALID,916.615,VALID,0,VALID,100,VALID,-0.0169808,VALID,21.3963,VALID,160,VALID,0.518714,
2005-06-07, 01:10:00,VALID,916.597,VALID,0,VALID,100,VALID,-0.0169808,VALID,21.3837,VALID,160,VALID,0.287642,
2005-06-07, 01:11:01,VALID,916.592,VALID,0,VALID,100,VALID,-0.0339617,VALID,21.3866,VALID,160,VALID,0.107195,
2005-06-07, 01:12:00,VALID,916.571,VALID,0,VALID,100,VALID,-0.0339617,VALID,21.3904,VALID,160,VALID,0.263672,
2005-06-07, 01:13:00,VALID,916.558,VALID,0,VALID,100,VALID,-0.0169808,VALID,21.3802,VALID,160,VALID,0.44401,
2005-06-07, 01:14:01,VALID,916.551,VALID,0,VALID,100,VALID,-0.0339617,VALID,21.3869,VALID,148,VALID,0.5129,
2005-06-07, 01:15:00,VALID,916.529,VALID,0,VALID,100,VALID,0,VALID,21.3775,VALID,142,VALID,0.417696,
2005-06-07, 01:16:00,VALID,916.526,VALID,0,VALID,100,VALID,-0.0339617,VALID,21.3578,VALID,148,VALID,0.714844,
2005-06-07, 01:17:01,VALID,916.518,VALID,0,VALID,100,VALID,-0.0169808,VALID,21.3484,VALID,152,VALID,0.471799,
2005-06-07, 01:18:01,VALID,916.514,VALID,0,VALID,100,VALID,-0.0169808,VALID,21.3258,VALID,155,VALID,0.369851,
2005-06-07, 01:19:00,VALID,916.508,VALID,0,VALID,100,VALID,-0.0509425,VALID,21.3062,VALID,155,VALID,0.248397,
2005-06-07, 01:20:00,VALID,916.489,VALID,0,VALID,100,VALID,-0.0169808,VALID,21.2903,VALID,152,VALID,0.363459,
2005-06-07, 01:21:01,VALID,916.499,VALID,0,VALID,100,VALID,0,VALID,21.2709,VALID,137,VALID,0.444922,
2005-06-07, 01:22:01,VALID,916.464,VALID,0,VALID,100,VALID,0,VALID,21.2445,VALID,129,VALID,0.456745,
2005-06-07, 01:23:01,VALID,916.445,VALID,0,VALID,100,VALID,0.0509425,VALID,21.2176,VALID,105,VALID,0.856468,
2005-06-07, 01:24:01,VALID,916.404,VALID,0,VALID,100,VALID,0.0849042,VALID,21.1824,VALID,100,VALID,0.724746,
2005-06-07, 01:25:01,VALID,916.387,VALID,0,VALID,100,VALID,0.0339617,VALID,21.1595,VALID,109,VALID,0.843378,
2005-06-07, 01:26:00,VALID,916.363,VALID,0,VALID,100,VALID,0.0509425,VALID,21.1404,VALID,108,VALID,0.762429,
2005-06-07, 01:27:01,VALID,916.335,VALID,0,VALID,100,VALID,0.0169808,VALID,21.1344,VALID,87,VALID,0.65734,
2005-06-07, 01:28:00,VALID,916.32,VALID,0,VALID,100,VALID,0.0509425,VALID,21.1404,VALID,62,VALID,0.665661,
2005-06-07, 01:29:01,VALID,916.309,VALID,0,VALID,100,VALID,0.0509425,VALID,21.1366,VALID,55,VALID,0.682692,
2005-06-07, 01:30:01,VALID,916.295,VALID,0,VALID,100,VALID,0.0679233,VALID,21.1503,VALID,49,VALID,0.587109,
2005-06-07, 01:31:01,VALID,916.282,VALID,0,VALID,100,VALID,0.0679233,VALID,21.1406,VALID,49,VALID,0.304116,
2005-06-07, 01:32:00,VALID,916.276,VALID,0,VALID,100,VALID,0.0509425,VALID,21.1336,VALID,49,VALID,0.0710747,
2005-06-07, 01:33:01,VALID,916.278,VALID,0,VALID,100,VALID,0.0849042,VALID,21.1538,VALID,49,VALID,0.0581174,
2005-06-07, 01:34:00,VALID,916.275,VALID,0,VALID,100,VALID,0.0339617,VALID,21.1186,VALID,49,VALID,0.0308949,
2005-06-07, 01:35:00,VALID,916.267,VALID,0,VALID,100,VALID,0.0339617,VALID,21.1086,VALID,49,VALID,0.317835,
2005-06-07, 01:36:01,VALID,916.264,VALID,0,VALID,100,VALID,0.0169808,VALID,21.1054,VALID,49,VALID,0.404576,
2005-06-07, 01:37:01,VALID,916.257,VALID,0,VALID,100,VALID,-0.0339617,VALID,21.0962,VALID,49,VALID,0.608817,
2005-06-07, 01:38:00,VALID,916.254,VALID,0,VALID,100,VALID,-0.0509425,VALID,21.0844,VALID,49,VALID,0.542791,
2005-06-07, 01:39:01,VALID,916.252,VALID,0,VALID,100,VALID,-0.101885,VALID,21.0747,VALID,49,VALID,0.482887,
2005-06-07, 01:40:00,VALID,916.225,VALID,0,VALID,100,VALID,-0.0509425,VALID,21.0521,VALID,49,VALID,0.432292,
2005-06-07, 01:41:01,VALID,916.221,VALID,0,VALID,100,VALID,-0.0849042,VALID,21.0526,VALID,49,VALID,0.380952,
2005-06-07, 01:42:01,VALID,916.216,VALID,0,VALID,100,VALID,-0.101885,VALID,21.0558,VALID,49,VALID,0.105078,
2005-06-07, 01:43:00,VALID,916.238,VALID,0,VALID,100,VALID,-0.0849042,VALID,21.0591,VALID,49,VALID,0.0188643,
2005-06-07, 01:44:00,VALID,916.237,VALID,0,VALID,100,VALID,0,VALID,21.0623,VALID,49,VALID,0.00190549,
2005-06-07, 01:45:00,VALID,916.256,VALID,0,VALID,100,VALID,-0.0169808,VALID,21.0647,VALID,49,VALID,0,
2005-06-07, 01:46:01,VALID,916.258,VALID,0,VALID,100,VALID,-0.0679233,VALID,21.058,VALID,49,VALID,0,
2005-06-07, 01:47:01,VALID,916.245,VALID,0,VALID,100,VALID,-0.0169808,VALID,21.0752,VALID,49,VALID,0,
2005-06-07, 01:48:01,VALID,916.239,VALID,0,VALID,100,VALID,-0.0679233,VALID,21.0749,VALID,49,VALID,0,
2005-06-07, 01:49:01,VALID,916.242,VALID,0,VALID,100,VALID,-0.0339617,VALID,21.0712,VALID,49,VALID,0,
2005-06-07, 01:50:01,VALID,916.229,VALID,0,VALID,100,VALID,-0.0849042,VALID,21.0873,VALID,49,VALID,0,
2005-06-07, 01:51:01,VALID,916.229,VALID,0,VALID,100,VALID,-0.0339617,VALID,21.0908,VALID,49,VALID,0.0545058,
2005-06-07, 01:52:01,VALID,916.219,VALID,0,VALID,100,VALID,-0.0169808,VALID,21.0811,VALID,48,VALID,0.353516,
2005-06-07, 01:53:01,VALID,916.223,VALID,0,VALID,100,VALID,-0.0169808,VALID,21.0941,VALID,42,VALID,0.294922,
2005-06-07, 01:54:01,VALID,916.221,VALID,0,VALID,100,VALID,-0.0339617,VALID,21.1035,VALID,42,VALID,0.0217634,
2005-06-07, 01:55:01,VALID,916.224,VALID,0,VALID,100,VALID,-0.0169808,VALID,21.1293,VALID,42,VALID,0,
2005-06-07, 01:56:01,VALID,916.227,VALID,0,VALID,100,VALID,-0.0339617,VALID,21.1621,VALID,42,VALID,0,
2005-06-07, 01:57:01,VALID,916.238,VALID,0,VALID,100,VALID,0,VALID,21.1745,VALID,42,VALID,0.00508721,
2005-06-07, 01:58:01,VALID,916.25,VALID,0,VALID,100,VALID,-0.0169808,VALID,21.1907,VALID,42,VALID,0.0423329,
2005-06-07, 01:59:01,VALID,916.248,VALID,0,VALID,100,VALID,0.0169808,VALID,21.2006,VALID,42,VALID,0,
2005-06-07, 02:00:01,VALID,916.253,VALID,0,VALID,100,VALID,-0.0339617,VALID,21.1971,VALID,42,VALID,0,
2005-06-07, 02:01:01,VALID,916.229,VALID,0,VALID,100,VALID,-0.0509425,VALID,21.22,VALID,42,VALID,0,
2005-06-07, 02:02:01,VALID,916.209,VALID,0,VALID,100,VALID,-0.0509425,VALID,21.23,VALID,42,VALID,0,
2005-06-07, 02:03:01,VALID,916.165,VALID,0,VALID,100,VALID,-0.0339617,VALID,21.2362,VALID,42,VALID,0.220526,
2005-06-07, 02:04:01,VALID,916.13,VALID,0,VALID,100,VALID,-0.0339617,VALID,21.2453,VALID,42,VALID,0.156461,
2005-06-07, 02:05:01,VALID,916.109,VALID,0,VALID,100,VALID,-0.0509425,VALID,21.2747,VALID,42,VALID,0.220655,
2005-06-07, 02:06:01,VALID,916.072,VALID,0,VALID,100,VALID,-0.0339617,VALID,21.2938,VALID,42,VALID,0.236421,
2005-06-07, 02:07:01,VALID,916.069,VALID,0,VALID,100,VALID,-0.0509425,VALID,21.3132,VALID,42,VALID,0.0486111,
2005-06-07, 02:08:01,VALID,916.069,VALID,0,VALID,100,VALID,-0.0339617,VALID,21.3264,VALID,42,VALID,0,
2005-06-07, 02:09:01,VALID,916.088,VALID,0,VALID,100,VALID,-0.0339617,VALID,21.3495,VALID,42,VALID,0,
2005-06-07, 02:10:01,VALID,916.101,VALID,0,VALID,100,VALID,-0.0849042,VALID,21.3465,VALID,42,VALID,0,
2005-06-07, 02:11:01,VALID,916.099,VALID,0,VALID,100,VALID,-0.0679233,VALID,21.3393,VALID,42,VALID,0,
2005-06-07, 02:12:01,VALID,916.101,VALID,0,VALID,100,VALID,-0.0509425,VALID,21.3657,VALID,42,VALID,0.0496094,
2005-06-07, 02:13:00,VALID,916.101,VALID,0,VALID,100,VALID,-0.0679233,VALID,21.3815,VALID,42,VALID,0.365234,
2005-06-07, 02:14:00,VALID,916.091,VALID,0,VALID,100,VALID,-0.0169808,VALID,21.3842,VALID,42,VALID,0.432884,
2005-06-07, 02:15:00,VALID,916.069,VALID,0,VALID,100,VALID,-0.0169808,VALID,21.3939,VALID,42,VALID,0.333899,
2005-06-07, 02:16:00,VALID,916.077,VALID,0,VALID,100,VALID,0,VALID,21.42,VALID,42,VALID,0.05,
2005-06-07, 02:17:00,VALID,916.076,VALID,0,VALID,100,VALID,-0.0169808,VALID,21.4332,VALID,42,VALID,0.0560213,
2005-06-07, 02:18:00,VALID,916.097,VALID,0,VALID,100,VALID,-0.0339617,VALID,21.4432,VALID,42,VALID,0.22532,
2005-06-07, 02:19:00,VALID,916.108,VALID,0,VALID,100,VALID,-0.0339617,VALID,21.4426,VALID,42,VALID,0.0748047,
2005-06-07, 02:20:00,VALID,916.129,VALID,0,VALID,100,VALID,0,VALID,21.4459,VALID,42,VALID,0.0710565,
2005-06-07, 02:21:00,VALID,916.151,VALID,0,VALID,100,VALID,-0.0849042,VALID,21.4426,VALID,42,VALID,0.133878,
2005-06-07, 02:22:00,VALID,916.153,VALID,0,VALID,100,VALID,-0.0169808,VALID,21.4397,VALID,42,VALID,0.0138494,
2005-06-07, 02:23:00,VALID,916.157,VALID,0,VALID,100,VALID,-0.0339617,VALID,21.4324,VALID,42,VALID,0.0254836,
2005-06-07, 02:24:00,VALID,916.151,VALID,0,VALID,100,VALID,-0.0169808,VALID,21.4359,VALID,42,VALID,0.0111607,
2005-06-07, 02:25:00,VALID,916.13,VALID,0,VALID,100,VALID,-0.0339617,VALID,21.4459,VALID,42,VALID,0.00887784,
2005-06-07, 02:26:00,VALID,916.113,VALID,0,VALID,100,VALID,-0.0679233,VALID,21.4399,VALID,42,VALID,0.00260417,
2005-06-07, 02:27:00,VALID,916.087,VALID,0,VALID,100,VALID,-0.0509425,VALID,21.4391,VALID,42,VALID,0.0540082,
2005-06-07, 02:28:00,VALID,916.063,VALID,0,VALID,100,VALID,-0.0509425,VALID,21.4356,VALID,42,VALID,0.146019,
2005-06-07, 02:29:00,VALID,916.062,VALID,0,VALID,100,VALID,-0.0339617,VALID,21.4494,VALID,42,VALID,0,
2005-06-07, 02:30:00,VALID,916.06,VALID,0,VALID,100,VALID,-0.0509425,VALID,21.4389,VALID,42,VALID,0,
2005-06-07, 02:31:00,VALID,916.048,VALID,0,VALID,100,VALID,-0.0679233,VALID,21.4453,VALID,42,VALID,0.0394436,
2005-06-07, 02:32:00,VALID,916.049,VALID,0,VALID,100,VALID,-0.0169808,VALID,21.4714,VALID,42,VALID,0.00621449,
2005-06-07, 02:33:00,VALID,916.05,VALID,0,VALID,100,VALID,-0.0339617,VALID,21.4941,VALID,42,VALID,0.109933,
2005-06-07, 02:34:00,VALID,916.045,VALID,0,VALID,100,VALID,-0.0849042,VALID,21.5134,VALID,42,VALID,0.379856,
2005-06-07, 02:35:00,VALID,916.045,VALID,0,VALID,100,VALID,-0.101885,VALID,21.4879,VALID,42,VALID,0.314276,
2005-06-07, 02:36:00,VALID,916.025,VALID,0,VALID,100,VALID,-0.0339617,VALID,21.4717,VALID,42,VALID,0.402951,
2005-06-07, 02:37:00,VALID,916.025,VALID,0,VALID,100,VALID,-0.0339617,VALID,21.4747,VALID,42,VALID,0.333398,
2005-06-07, 02:38:00,VALID,916.003,VALID,0,VALID,100,VALID,-0.0169808,VALID,21.4583,VALID,42,VALID,0.348437,
2005-06-07, 02:39:00,VALID,915.986,VALID,0,VALID,100,VALID,-0.0679233,VALID,21.4585,VALID,42,VALID,0.495139,
2005-06-07, 02:40:00,VALID,915.954,VALID,0,VALID,100,VALID,-0.0679233,VALID,21.4491,VALID,40,VALID,0.433789,
2005-06-07, 02:41:00,VALID,915.929,VALID,0,VALID,100,VALID,-0.0509425,VALID,21.4682,VALID,37,VALID,0.319767,
2005-06-07, 02:42:00,VALID,915.897,VALID,0,VALID,100,VALID,-0.0679233,VALID,21.4583,VALID,17,VALID,0.715511,
2005-06-07, 02:43:00,VALID,915.877,VALID,0,VALID,100,VALID,-0.0339617,VALID,21.4488,VALID,17,VALID,0.41806,
2005-06-07, 02:44:00,VALID,915.88,VALID,0,VALID,100,VALID,-0.0509425,VALID,21.4523,VALID,16,VALID,0.304142,
2005-06-07, 02:45:00,VALID,915.874,VALID,0,VALID,100,VALID,-0.0169808,VALID,21.4429,VALID,16,VALID,0.190163,
2005-06-07, 02:46:00,VALID,915.892,VALID,0,VALID,100,VALID,-0.0509425,VALID,21.4198,VALID,16,VALID,0.0321378,
2005-06-07, 02:47:00,VALID,915.89,VALID,0,VALID,100,VALID,-0.0509425,VALID,21.4432,VALID,16,VALID,0.0426829,
2005-06-07, 02:48:00,VALID,915.889,VALID,0,VALID,100,VALID,-0.0509425,VALID,21.4521,VALID,16,VALID,0,
2005-06-07, 02:49:00,VALID,915.898,VALID,0,VALID,100,VALID,-0.0169808,VALID,21.472,VALID,16,VALID,0.018532,
2005-06-07, 02:50:00,VALID,915.877,VALID,0,VALID,100,VALID,-0.0679233,VALID,21.4776,VALID,16,VALID,0.496094,
2005-06-07, 02:51:00,VALID,915.873,VALID,0,VALID,100,VALID,-0.0169808,VALID,21.4749,VALID,16,VALID,0.548328,
2005-06-07, 02:52:00,VALID,915.87,VALID,0,VALID,100,VALID,-0.0339617,VALID,21.4585,VALID,16,VALID,0.49375,
2005-06-07, 02:53:00,VALID,915.864,VALID,0,VALID,100,VALID,-0.0509425,VALID,21.4416,VALID,16,VALID,0.544034,
2005-06-07, 02:54:00,VALID,915.854,VALID,0,VALID,100,VALID,-0.0339617,VALID,21.4327,VALID,13,VALID,0.65904,
2005-06-07, 02:55:00,VALID,915.872,VALID,0,VALID,100,VALID,-0.0679233,VALID,21.4259,VALID,13,VALID,0.478277,
2005-06-07, 02:56:00,VALID,915.87,VALID,0,VALID,100,VALID,-0.0679233,VALID,21.416,VALID,34,VALID,0.751674,
2005-06-07, 02:57:00,VALID,915.882,VALID,0,VALID,100,VALID,-0.0509425,VALID,21.4195,VALID,24,VALID,0.594295,
2005-06-07, 02:58:00,VALID,915.877,VALID,0,VALID,100,VALID,-0.0339617,VALID,21.4066,VALID,18,VALID,0.453658,
2005-06-07, 02:59:00,VALID,915.874,VALID,0,VALID,100,VALID,-0.0509425,VALID,21.4071,VALID,18,VALID,0.139509,
2005-06-07, 03:00:00,VALID,915.858,VALID,0,VALID,100,VALID,-0.0339617,VALID,21.4332,VALID,18,VALID,0.473133,
2005-06-07, 03:01:00,VALID,915.866,VALID,0,VALID,100,VALID,-0.0509425,VALID,21.4227,VALID,17,VALID,0.599144,
2005-06-07, 03:02:00,VALID,915.83,VALID,0,VALID,100,VALID,-0.0339617,VALID,21.3907,VALID,354,VALID,0.510298,
2005-06-07, 03:03:00,VALID,915.83,VALID,0,VALID,100,VALID,-0.0339617,VALID,21.3974,VALID,355,VALID,0.50744,
2005-06-07, 03:04:00,VALID,915.809,VALID,0,VALID,100,VALID,-0.0169808,VALID,21.3517,VALID,354,VALID,1.15407,
2005-06-07, 03:05:00,VALID,915.792,VALID,0,VALID,100,VALID,-0.0849042,VALID,21.3355,VALID,15,VALID,1.16279,
2005-06-07, 03:06:00,VALID,915.77,VALID,0,VALID,100,VALID,-0.0679233,VALID,21.3167,VALID,17,VALID,0.547396,
2005-06-07, 03:07:00,VALID,915.747,VALID,0,VALID,100,VALID,-0.0509425,VALID,21.3164,VALID,17,VALID,0.437305,
2005-06-07, 03:08:00,VALID,915.738,VALID,0,VALID,100,VALID,-0.0169808,VALID,21.3352,VALID,16,VALID,0.530469,
2005-06-07, 03:09:00,VALID,915.724,VALID,0,VALID,100,VALID,-0.0509425,VALID,21.342,VALID,345,VALID,0.765234,
2005-06-07, 03:10:00,VALID,915.704,VALID,0,VALID,100,VALID,-0.0849042,VALID,21.307,VALID,357,VALID,0.711277,
2005-06-07, 03:11:00,VALID,915.694,VALID,0,VALID,100,VALID,-0.0679233,VALID,21.3105,VALID,24,VALID,0.653516,
2005-06-07, 03:12:00,VALID,915.678,VALID,0,VALID,100,VALID,-0.0339617,VALID,21.3062,VALID,25,VALID,0.715372,
2005-06-07, 03:13:00,VALID,915.662,VALID,0,VALID,100,VALID,-0.0339617,VALID,21.3196,VALID,357,VALID,0.975781,
2005-06-07, 03:14:00,VALID,915.646,VALID,0,VALID,100,VALID,-0.0169808,VALID,21.2975,VALID,359,VALID,0.923651,
2005-06-07, 03:15:00,VALID,915.62,VALID,0,VALID,100,VALID,-0.0339617,VALID,21.2774,VALID,4,VALID,0.441602,
2005-06-07, 03:16:00,VALID,915.607,VALID,0,VALID,100,VALID,0,VALID,21.2771,VALID,7,VALID,0.266211,
2005-06-07, 03:17:00,VALID,915.587,VALID,0,VALID,100,VALID,-0.0339617,VALID,21.2935,VALID,11,VALID,0.37391,
2005-06-07, 03:18:00,VALID,915.557,VALID,0,VALID,100,VALID,-0.0339617,VALID,21.3099,VALID,15,VALID,0.586115,
2005-06-07, 03:19:00,VALID,915.56,VALID,0,VALID,100,VALID,-0.0169808,VALID,21.307,VALID,18,VALID,0.690163,
2005-06-07, 03:20:00,VALID,915.551,VALID,0,VALID,100,VALID,-0.0169808,VALID,21.3099,VALID,11,VALID,0.732777,
2005-06-07, 03:21:00,VALID,915.565,VALID,0,VALID,100,VALID,-0.0849042,VALID,21.3169,VALID,2,VALID,0.758539,
2005-06-07, 03:22:00,VALID,915.569,VALID,0,VALID,100,VALID,-0.0509425,VALID,21.2836,VALID,12,VALID,0.744141,
2005-06-07, 03:23:00,VALID,915.567,VALID,0,VALID,100,VALID,0.0169808,VALID,21.2793,VALID,3,VALID,0.559775,
2005-06-07, 03:24:00,VALID,915.56,VALID,0,VALID,100,VALID,0.0169808,VALID,21.2728,VALID,360,VALID,0.565278,
2005-06-07, 03:25:00,VALID,915.558,VALID,0,VALID,100,VALID,0.0169808,VALID,21.2599,VALID,358,VALID,0.59668,
2005-06-07, 03:26:00,VALID,915.562,VALID,0,VALID,100,VALID,0.0169808,VALID,21.2405,VALID,332,VALID,0.610263,
2005-06-07, 03:27:00,VALID,915.555,VALID,0,VALID,100,VALID,0.0339617,VALID,21.2408,VALID,326,VALID,0.167878,
2005-06-07, 03:28:00,VALID,915.565,VALID,0,VALID,100,VALID,0.0339617,VALID,21.247,VALID,326,VALID,0,
2005-06-07, 03:29:00,VALID,915.568,VALID,0,VALID,100,VALID,0.0339617,VALID,21.2663,VALID,326,VALID,0,
2005-06-07, 03:30:00,VALID,915.559,VALID,0,VALID,100,VALID,0.0169808,VALID,21.2599,VALID,326,VALID,0.00177557,
2005-06-07, 03:31:00,VALID,915.575,VALID,0,VALID,100,VALID,0.0339617,VALID,21.2825,VALID,326,VALID,0.046875,
2005-06-07, 03:32:00,VALID,915.561,VALID,0,VALID,100,VALID,0.0339617,VALID,21.2763,VALID,326,VALID,0,
2005-06-07, 03:33:00,VALID,915.562,VALID,0,VALID,100,VALID,0.0169808,VALID,21.2927,VALID,330,VALID,0.337305,
2005-06-07, 03:34:00,VALID,915.55,VALID,0,VALID,100,VALID,0,VALID,21.3118,VALID,331,VALID,0.156622,
2005-06-07, 03:35:00,VALID,915.555,VALID,0,VALID,100,VALID,0.0339617,VALID,21.3374,VALID,333,VALID,0.251143,
2005-06-07, 03:36:00,VALID,915.565,VALID,0,VALID,100,VALID,0.0339617,VALID,21.3468,VALID,349,VALID,0.247523,
2005-06-07, 03:37:00,VALID,915.555,VALID,0,VALID,100,VALID,0,VALID,21.3702,VALID,349,VALID,0.0133929,
2005-06-07, 03:38:00,VALID,915.568,VALID,0,VALID,100,VALID,-0.0849042,VALID,21.3743,VALID,358,VALID,0.302484,
2005-06-07, 03:39:00,VALID,915.566,VALID,0,VALID,100,VALID,0,VALID,21.3716,VALID,21,VALID,0.710756,